User: anonymous   Login
Location: Holcomb Observatory
(44.4922°N, 73.1654°W)
Time: 04:48:27
(UTC-04:00)
Language:

SL-16 R/B - Orbit

View from above orbital plane
View from above orbital plane
View from above satellite
View from above satellite

Ground track
Ground track

The orbit data is extracted from the following two-line orbital elements,

1 27006U 01056F   16205.51919150 -.00000015  00000-0  30572-4 0  9990
2 27006  99.2642 351.6714 0015564  87.2499 320.8403 13.70969997731467
Epoch (UTC): 23 July 2016 12:27:38
Eccentricity: 0.0015564
inclination: 99.2642°
perigee height: 984 km
apogee height: 1007 km
right ascension of ascending node: 351.6714°
argument of perigee: 87.2499°
revolutions per day: 13.70969997
mean anomaly at epoch: 320.8403°
orbit number at epoch: 73146

The dashed part of the orbit path shows where the satellite is in the earth's shadow,  

DLR